Location: Bottom School (historical)
(37.9078°N, 89.3593°W)
Time: 14:54:41
(UTC+00:00)

CZ-4B R/B - Pass Details

Date: 08 December 2021
Orbit: 378 x 442 km, 97.6° (Epoch: 19 January)

Event Time Altitude Azimuth Distance (km) Brightness Sun altitude
Rises 12:18:06 0° 153° (SSE) 2,426 6.0 -8.5°
Reaches altitude 10° 12:20:11 10° 146° (SE) 1,552 5.1 -8.1°
Maximum altitude 12:23:21 42° 75° (ENE) 636 2.6 -7.5°
Drops below altitude 10° 12:26:28 10° 3° (N) 1,533 3.9 -6.9°
Enters shadow 12:30:42 -7° 353° (N) 3,326 5.5 -6.2°
